Location: *
(37.9500°N, 27.3666°E)
Time: 06:27:16
(UTC+00:00)

Cosmos 614 Rocket - Pass Details

Date: 02 June 2022
Orbit: 732 x 764 km, 74.1° (Epoch: 03 July)

Event Time Altitude Azimuth Distance (km) Brightness Sun altitude
Rises 21:56:16 0° 357° (N) 3,223 8.4 -29.7°
Reaches altitude 10° 21:59:21 10° 16° (NNE) 2,298 7.3 -29.7°
Maximum altitude 22:02:58 19° 60° (ENE) 1,776 6.1 -29.8°
Enters shadow 22:04:21 17° 80° (E) 1,863 6.0 -29.8°
